Del Bajio, Mexico

4:17 PM CDT on June 23, 2017 (GMT -0500)
De Guanajuato International

Weather History for MMLO - October, 2012

Change the Weather History Date:

Monday, October 29, 2012

  Actual Average Record
Temperature  
Mean Temperature 68 °F -  
Max Temperature 82 °F 78 °F 84 °F (2004)
Min Temperature 53 °F 49 °F 39 °F (2007)
Cooling Degree Days 2    
Growing Degree Days 18 (Base 50)    
Moisture  
Dew Point 51 °F    
Average Humidity 67    
Maximum Humidity 88    
Minimum Humidity 30    
Precipitation  
Precipitation 0.00 in - - ()
Sea Level Pressure  
Sea Level Pressure 30.16 in    
Wind  
Wind Speed 3 mph ()    
Max Wind Speed 20 mph    
Max Gust Speed 34 mph    
Visibility 7.8 miles    
Events Rain    
Averages and records for this station are not official NWS values.
T = Trace of Precipitation, MM = Missing Value Source: Averaged Metar Reports

Daily Weather History Graph

Daily Weather History Graph

Search for Another Location

Airport or City:

Trip Planner

Search our weather history database for the weather conditions in past years. The results will help you decide how hot, cold, wet, or windy it might be!

Date:

Astronomy

Oct. 29, 2012 Rise Set
Actual Time 6:47 AM CST 6:11 PM CST
Civil Twilight 6:24 AM CST 6:34 PM CST
Nautical Twilight 5:58 AM CST 7:00 PM CST
Astronomical Twilight 5:32 AM CST 7:26 PM CST
Moon 6:10 PM CST (10/29) 6:36 AM CST (10/29)
Length of Visible Light 12h 09m
Length of Day
11h 24m
Full, 100% of the Moon is Illuminated
Oct 29
Full
Oct 29
Full
Nov 6
Last Quarter
Nov 13
New
Nov 20
First Quarter

Hourly Weather History & Observations

Time (CST) Temp. Dew Point Humidity Pressure Visibility Wind Dir Wind Speed Gust Speed Precip Events Conditions
12:41 AM 57.2 °F 48.2 °F 72% 30.27 in 8.0 mi Calm Calm - N/A   Scattered Clouds
1:42 AM 59.0 °F 51.8 °F 77% 30.27 in 8.0 mi East 5.8 mph - N/A   Scattered Clouds
2:43 AM 55.4 °F 48.2 °F 77% 29.88 in 8.0 mi Calm Calm - N/A   Mostly Cloudy
3:40 AM 55.4 °F 50.0 °F 82% 30.27 in 8.0 mi NE 6.9 mph - N/A   Mostly Cloudy
4:42 AM 55.4 °F 51.8 °F 88% 30.27 in 8.0 mi NE 3.5 mph - N/A   Scattered Clouds
5:46 AM 55.4 °F 50.0 °F 82% 29.92 in 8.0 mi Calm Calm - N/A   Scattered Clouds
6:43 AM 53.6 °F 50.0 °F 88% 30.27 in 8.0 mi Calm Calm - N/A   Scattered Clouds
7:44 AM 57.2 °F 51.8 °F 82% 30.30 in 9.0 mi Calm Calm - N/A   Mostly Cloudy
8:46 AM 64.4 °F 51.8 °F 64% 30.01 in 9.0 mi Calm Calm - N/A   Mostly Cloudy
9:46 AM 69.8 °F 51.8 °F 53% 30.32 in 8.0 mi Calm Calm - N/A   Mostly Cloudy
10:46 AM 73.4 °F 51.8 °F 47% 30.32 in 8.0 mi Calm Calm - N/A   Mostly Cloudy
11:43 AM 77.0 °F 51.8 °F 41% 29.96 in 8.0 mi Calm Calm - N/A   Mostly Cloudy
12:41 PM 82.4 °F 51.8 °F 35% 30.27 in 8.0 mi Calm Calm - N/A   Mostly Cloudy
1:43 PM 82.4 °F 48.2 °F 30% 30.24 in 8.0 mi Calm Calm - N/A   Mostly Cloudy
2:40 PM 75.2 °F 46.4 °F 36% 29.89 in 8.0 mi ENE 10.4 mph - N/A   Overcast
3:44 PM 75.2 °F 48.2 °F 38% 30.18 in 8.0 mi ESE 6.9 mph - N/A   Mostly Cloudy
4:40 PM 77.0 °F 46.4 °F 34% 30.21 in 8.0 mi North 15.0 mph - N/A   Overcast
4:56 PM 62.6 °F 50.0 °F 63% 30.21 in 6.0 mi NE 17.3 mph 34.5 mph N/A Rain Rain
5:41 PM 60.8 °F 57.2 °F 88% 29.98 in 6.0 mi NE 6.9 mph - N/A Rain Rain
6:40 PM 59.0 °F 55.4 °F 88% 30.24 in 7.0 mi ENE 19.6 mph - N/A Rain Light Rain
7:43 PM 60.8 °F 53.6 °F 77% 30.27 in 8.0 mi Calm Calm - N/A   Overcast
8:42 PM 59.0 °F 55.4 °F 88% 29.97 in 8.0 mi West 3.5 mph - N/A   Overcast
9:50 PM 60.8 °F 53.6 °F 77% 30.30 in 8.0 mi ESE 6.9 mph - N/A   Overcast
10:46 PM 57.2 °F 50.0 °F 77% 30.32 in 8.0 mi SSW 6.9 mph - N/A   Mostly Cloudy
11:42 PM 57.2 °F 53.6 °F 88% 29.95 in 6.0 mi Calm Calm - N/A   Mostly Cloudy